Regional Weather Roundup
Issued by NWS Sioux Falls, SD

Home | Current Version | Previous Version | Text Only | Print | Product List | Glossary On
Versions: 1 2 3 4 5 6 7 8 9 10 11 12 13 14 15 16 17 18 19 20 21 22 23 24 25 26 27 28 29 30 31 32 33 34 35 36 37 38 39 40 41 42 43 44 45 46 47 48 49 50
000
ASUS43 KFSD 230710
RWRFSD

WEATHER ROUNDUP FOR SE SOUTH DAKOTA/SW MINNESOTA/NW IOWA
NATIONAL WEATHER SERVICE SIOUX FALLS SD
200 AM CDT TUE MAY 23 2017

NOTE: "FAIR" INDICATES FEW OR NO CLOUDS BELOW 12,000 FEET WITH NO
SIGNIFICANT WEATHER AND OR OBSTRUCTIONS TO VISIBILITY.


SDZ038>040-050-052>070-230800-
SOUTHEAST SOUTH DAKOTA

CITY           SKY/WX    TMP DP  RH WIND       PRES   REMARKS
BROOKINGS      CLOUDY    46  43  89 W10       29.90F
CHAMBERLAIN    DRIZZLE   51  45  79 CALM      29.99F
HURON          LGT RAIN  47  45  93 W8        29.96F
MADISON        CLOUDY    45  45 100 NW9       29.92F
MITCHELL       CLOUDY    49  46  90 W6        29.96F
SIOUX FALLS    PTCLDY    48  42  80 NW13      29.92S
WINNER         CLOUDY    50  44  80 W8        30.02F
$$

MNZ071-072-080-081-089-090-097-098-230800-
SOUTHWEST MINNESOTA

CITY           SKY/WX    TMP DP  RH WIND       PRES   REMARKS
FAIRMONT       CLOUDY    51  48  89 NW9       29.86S
JACKSON        CLOUDY    48  46  93 CALM      29.87F
LUVERNE        CLOUDY    46  41  81 NW12      29.90F
MARSHALL       LGT RAIN  48  45  89 NW14      29.89S
MONTEVIDEO     DRIZZLE   46  43  87 NW3       29.87F
PIPESTONE      DRIZZLE   46  39  76 NW10G17   29.90S
REDWOOD FALLS  CLOUDY    50  42  74 NW10      29.86F
TRACY          CLOUDY    50  47  89 NW8       29.88F
WINDOM         CLOUDY    50  46  87 W8        29.87F
WORTHINGTON    CLOUDY    48  46  93 NW7       29.88F
$$

IAZ001>003-012>014-020>022-031-032-NEZ013-014-SDZ071-230800-
NORTHWEST IOWA

CITY           SKY/WX    TMP DP  RH WIND       PRES   REMARKS
CHEROKEE       CLOUDY    50  47  90 W3        29.89F
DENISON        CLOUDY    48  45  87 NW6       29.92S
ESTHERVILLE    CLOUDY    49  48  97 NW9       29.86F
LE MARS        PTCLDY    46  45  93 W6        29.92F
ORANGE CITY    PTCLDY    45  45 100 NW6       29.90F
SHELDON        MOCLDY    48  45  87 NW9         N/A
SIOUX CITY     CLEAR     47  45  93 W7        29.92F
SPENCER        CLOUDY    49  47  93 NW6       29.88F
STORM LAKE     CLOUDY    50  46  87 NW8       29.89S
$$

ABBREVIATIONS USED IN REMARKS
   TC - TEMPERATURE IN CELSIUS
  WCI - WIND CHILL INDEX
   HX - HEAT INDEX
  VSB - VISIBILITY





USA.gov is the U.S. government's official web portal to all federal, state and local government web resources and services.